"read_dt","SO2 (ppb)","flags","PMT voltage (V)","lamp voltage (V)","lamp intensity (Hz)","internal temp (C)","react chamber temp (C)","sample flow (l/min)","pres (mmHg)","SO2 bkg (ppb)","SO2 coefficient"
2014-02-27 00:00:00,5959E-2,5C000490,-0724,1306,7390,019.1,045.0,0.139,769.0,01.15,0.508
2014-02-27 00:01:00,5967E-2,5C000490,-0724,1310,7467,019.1,045.0,0.139,768.9,01.15,0.508
2014-02-27 00:02:00,5887E-2,5C000490,-0724,1312,7417,019.1,045.0,0.139,768.9,01.15,0.508
2014-02-27 00:03:00,5849E-2,5C000490,-0724,1316,7327,019.1,045.0,0.139,769.0,01.15,0.508
2014-02-27 00:04:00,5843E-2,5C000490,-0724,1319,7323,019.1,045.0,0.139,768.9,01.15,0.508
2014-02-27 00:05:00,5846E-2,5C000490,-0724,1321,7438,019.1,045.0,0.139,768.8,01.15,0.508
2014-02-27 00:06:00,5845E-2,5C000490,-0724,1321,7309,019.1,045.0,0.139,768.9,01.15,0.508
2014-02-27 00:07:00,5860E-2,5C000490,-0724,1323,7293,019.1,045.0,0.139,769.0,01.15,0.508
2014-02-27 00:08:00,5797E-2,5C000490,-0724,1325,7282,019.1,045.0,0.139,769.0,01.15,0.508
2014-02-27 00:09:00,5854E-2,5C000490,-0724,1322,7386,019.1,045.0,0.139,768.9,01.15,0.508
2014-02-27 00:10:00,5821E-2,5C000490,-0724,1325,7252,019.1,045.0,0.139,768.9,01.15,0.508
2014-02-27 00:11:00,5915E-2,5C000490,-0724,1329,7284,019.1,045.0,0.139,768.8,01.15,0.508
2014-02-27 00:12:00,5857E-2,5C000490,-0724,1333,7308,019.1,045.0,0.139,768.9,01.15,0.508
2014-02-27 00:13:00,5842E-2,5C000490,-0724,1334,7158,019.1,045.0,0.139,768.8,01.15,0.508
2014-02-27 00:14:00,5887E-2,5C000490,-0724,1337,7131,019.1,045.0,0.139,769.0,01.15,0.508
2014-02-27 00:15:00,5855E-2,5C000490,-0724,1338,7171,019.1,045.0,0.139,768.9,01.15,0.508
2014-02-27 00:16:00,5896E-2,5C000490,-0724,1341,7144,019.1,045.0,0.139,768.8,01.15,0.508
2014-02-27 00:17:00,5825E-2,5C000490,-0724,1343,7186,019.1,045.0,0.139,768.9,01.15,0.508
2014-02-27 00:18:00,5813E-2,5C000490,-0724,1345,7037,019.1,045.0,0.139,768.9,01.15,0.508
2014-02-27 00:19:00,5807E-2,5C000490,-0724,1347,7104,019.1,045.0,0.139,768.8,01.15,0.508
2014-02-27 00:20:00,5813E-2,5C000490,-0724,1347,7090,019.1,045.1,0.139,768.8,01.15,0.508
2014-02-27 00:21:00,5813E-2,5C000490,-0724,1348,7046,019.1,045.0,0.139,768.9,01.15,0.508
2014-02-27 00:22:00,5878E-2,5C000490,-0724,1351,7136,019.1,045.0,0.139,768.8,01.15,0.508
2014-02-27 00:23:00,5813E-2,5C000490,-0724,1351,7111,019.1,045.0,0.139,768.8,01.15,0.508
2014-02-27 00:24:00,5790E-2,5C000490,-0724,1354,6997,019.1,045.0,0.139,768.9,01.15,0.508
2014-02-27 00:25:00,5850E-2,5C000490,-0724,1354,7006,019.1,045.0,0.139,768.8,01.15,0.508
2014-02-27 00:26:00,5863E-2,5C000490,-0724,1357,6959,019.1,045.0,0.139,768.8,01.15,0.508
2014-02-27 00:27:00,5917E-2,5C000490,-0724,1359,7008,019.1,045.0,0.139,768.8,01.15,0.508
2014-02-27 00:28:00,5794E-2,5C000490,-0724,1360,6982,019.1,045.0,0.139,768.8,01.15,0.508
2014-02-27 00:29:00,5794E-2,5C000490,-0724,1361,6993,019.1,045.0,0.139,768.8,01.15,0.508
2014-02-27 00:30:00,5803E-2,5C000490,-0724,1362,6953,019.1,045.0,0.139,768.7,01.15,0.508
2014-02-27 00:31:00,5859E-2,5C000490,-0724,1363,6968,019.1,045.0,0.139,768.7,01.15,0.508
2014-02-27 00:32:00,5789E-2,5C000490,-0724,1363,6932,019.1,045.0,0.139,768.7,01.15,0.508
2014-02-27 00:33:00,5837E-2,5C000490,-0724,1364,6909,019.1,045.0,0.139,768.8,01.15,0.508
2014-02-27 00:34:00,5775E-2,5C000490,-0724,1364,6791,019.2,045.1,0.139,768.9,01.15,0.508
2014-02-27 00:35:00,5820E-2,5C000490,-0724,1366,6862,019.1,045.0,0.139,768.8,01.15,0.508
2014-02-27 00:36:00,5756E-2,5C000490,-0724,1367,6868,019.1,045.0,0.139,768.7,01.15,0.508
2014-02-27 00:37:00,5744E-2,5C000490,-0724,1367,6767,019.2,045.0,0.139,768.7,01.15,0.508
2014-02-27 00:38:00,5732E-2,5C000490,-0724,1368,6813,019.2,045.0,0.139,768.8,01.15,0.508
2014-02-27 00:39:00,5722E-2,5C000490,-0724,1369,6783,019.2,045.0,0.139,768.8,01.15,0.508
2014-02-27 00:40:00,5735E-2,5C000490,-0724,1370,6734,019.2,045.0,0.139,768.7,01.15,0.508
2014-02-27 00:41:00,5813E-2,5C000490,-0724,1371,6721,019.2,045.0,0.139,768.7,01.15,0.508
2014-02-27 00:42:00,5735E-2,5C000490,-0724,1371,6774,019.2,045.0,0.139,768.8,01.15,0.508
2014-02-27 00:43:00,5722E-2,5C000490,-0724,1372,6692,019.2,045.0,0.139,768.8,01.15,0.508
2014-02-27 00:44:00,5757E-2,5C000490,-0724,1370,6767,019.2,045.0,0.139,768.8,01.15,0.508
2014-02-27 00:45:00,5668E-2,5C000490,-0724,1370,6730,019.2,045.0,0.139,768.8,01.15,0.508
2014-02-27 00:46:00,5777E-2,5C000490,-0724,1371,6806,019.2,045.1,0.139,768.7,01.15,0.508
2014-02-27 00:47:00,5796E-2,5C000490,-0724,1362,7434,019.2,045.0,0.139,768.7,01.15,0.508
2014-02-27 00:48:00,5766E-2,5C000490,-0724,1320,7737,019.2,045.0,0.139,768.7,01.15,0.508
2014-02-27 00:49:00,5671E-2,5C000490,-0724,1266,8379,019.2,045.0,0.139,768.7,01.15,0.508
2014-02-27 00:50:00,5274E-2,5C000490,-0724,1235,8241,019.2,045.0,0.139,768.8,01.15,0.508
2014-02-27 00:51:00,5138E-2,5C000490,-0724,1233,8205,019.2,045.0,0.139,768.8,01.15,0.508
2014-02-27 00:52:00,5184E-2,5C000490,-0724,1235,8185,019.2,045.0,0.139,768.7,01.15,0.508
2014-02-27 00:53:00,5186E-2,5C000490,-0724,1241,8183,019.2,045.0,0.139,768.6,01.15,0.508
2014-02-27 00:54:00,5192E-2,5C000490,-0724,1244,8114,019.2,045.0,0.139,768.8,01.15,0.508
2014-02-27 00:55:00,5234E-2,5C000490,-0724,1249,7978,019.2,045.0,0.139,768.8,01.15,0.508
2014-02-27 00:56:00,5236E-2,5C000490,-0724,1254,8006,019.2,045.0,0.139,768.7,01.15,0.508
2014-02-27 00:57:00,5235E-2,5C000490,-0724,1258,7975,019.2,045.0,0.139,768.7,01.15,0.508
2014-02-27 00:58:00,5245E-2,5C000490,-0724,1259,7971,019.2,045.0,0.139,768.7,01.15,0.508
2014-02-27 00:59:00,5230E-2,5C000490,-0724,1262,7954,019.2,045.0,0.139,768.7,01.15,0.508
2014-02-27 01:00:00,5282E-2,5C000490,-0724,1265,7862,019.3,045.0,0.138,768.7,01.15,0.508
2014-02-27 01:01:00,5168E-2,5C000490,-0724,1268,7848,019.2,045.0,0.139,768.7,01.15,0.508
2014-02-27 01:02:00,5311E-2,5C000490,-0724,1269,7850,019.2,045.0,0.139,768.7,01.15,0.508
2014-02-27 01:03:00,5339E-2,5C000490,-0724,1272,7770,019.2,045.0,0.139,768.7,01.15,0.508
2014-02-27 01:04:00,5244E-2,5C000490,-0724,1277,7801,019.3,045.0,0.138,768.6,01.15,0.508
2014-02-27 01:05:00,5253E-2,5C000490,-0724,1279,7813,019.3,045.0,0.138,768.7,01.15,0.508
2014-02-27 01:06:00,5292E-2,5C000490,-0724,1280,7589,019.3,045.0,0.138,768.6,01.15,0.508
2014-02-27 01:07:00,5232E-2,5C000490,-0724,1280,7794,019.3,045.0,0.138,768.7,01.15,0.508
2014-02-27 01:08:00,5176E-2,5C000490,-0724,1280,7768,019.3,045.0,0.138,768.7,01.15,0.508
2014-02-27 01:09:00,5264E-2,5C000490,-0724,1281,7643,019.3,045.0,0.138,768.6,01.15,0.508
2014-02-27 01:10:00,5192E-2,5C000490,-0724,1283,7745,019.3,045.0,0.138,768.7,01.15,0.508
2014-02-27 01:11:00,5269E-2,5C000490,-0724,1285,7603,019.3,045.0,0.138,768.6,01.15,0.508
2014-02-27 01:12:00,5315E-2,5C000490,-0724,1287,7587,019.3,045.0,0.138,768.6,01.15,0.508
2014-02-27 01:13:00,5241E-2,5C000490,-0724,1288,7657,019.3,045.0,0.138,768.6,01.15,0.508
2014-02-27 01:14:00,5275E-2,5C000490,-0724,1289,7712,019.3,045.0,0.138,768.6,01.15,0.508
2014-02-27 01:15:00,5239E-2,5C000490,-0724,1290,7672,019.3,045.0,0.138,768.7,01.15,0.508
2014-02-27 01:16:00,5252E-2,5C000490,-0724,1292,7758,019.3,045.0,0.138,768.7,01.15,0.508
2014-02-27 01:17:00,5213E-2,5C000490,-0724,1293,7690,019.3,045.1,0.138,768.7,01.15,0.508
2014-02-27 01:18:00,5257E-2,5C000490,-0724,1294,7664,019.4,045.1,0.138,768.7,01.15,0.508
2014-02-27 01:19:00,5234E-2,5C000490,-0724,1295,7595,019.4,045.0,0.138,768.6,01.15,0.508
2014-02-27 01:20:00,5223E-2,5C000490,-0724,1299,7561,019.4,045.0,0.138,768.6,01.15,0.508
2014-02-27 01:21:00,5255E-2,5C000490,-0724,1300,7647,019.4,045.0,0.138,768.6,01.15,0.508
2014-02-27 01:22:00,5247E-2,5C000490,-0724,1301,7631,019.4,045.1,0.138,768.6,01.15,0.508
2014-02-27 01:23:00,5226E-2,5C000490,-0724,1302,7562,019.4,045.0,0.138,768.6,01.15,0.508
2014-02-27 01:24:00,5237E-2,5C000490,-0724,1304,7540,019.4,045.0,0.138,768.6,01.15,0.508
2014-02-27 01:25:00,5244E-2,5C000490,-0724,1307,7508,019.4,045.0,0.138,768.6,01.15,0.508
2014-02-27 01:26:00,5190E-2,5C000490,-0724,1306,7570,019.4,045.1,0.138,768.6,01.15,0.508
2014-02-27 01:27:00,5314E-2,5C000490,-0724,1308,7448,019.4,045.0,0.138,768.5,01.15,0.508
2014-02-27 01:28:00,5639E-2,5C000490,-0724,1309,7440,019.4,045.0,0.138,768.6,01.15,0.508
2014-02-27 01:29:00,5644E-2,5C000490,-0724,1313,7478,019.4,045.0,0.138,768.7,01.15,0.508
2014-02-27 01:30:00,5575E-2,5C000490,-0724,1315,7371,019.4,045.1,0.138,768.6,01.15,0.508
2014-02-27 01:31:00,5538E-2,5C000490,-0724,1318,7342,019.4,045.0,0.138,768.5,01.15,0.508
2014-02-27 01:32:00,5632E-2,5C000490,-0724,1319,7399,019.4,045.0,0.138,768.5,01.15,0.508
2014-02-27 01:33:00,5630E-2,5C000490,-0724,1320,7412,019.4,045.0,0.138,768.5,01.15,0.508
2014-02-27 01:34:00,5595E-2,5C000490,-0724,1320,7338,019.5,045.0,0.138,768.6,01.15,0.508
2014-02-27 01:35:00,5620E-2,5C000490,-0724,1323,7268,019.5,045.0,0.138,768.6,01.15,0.508
2014-02-27 01:36:00,5591E-2,5C000490,-0724,1325,7298,019.5,045.0,0.138,768.6,01.15,0.508
2014-02-27 01:37:00,5585E-2,5C000490,-0724,1327,7263,019.5,045.1,0.138,768.5,01.15,0.508
2014-02-27 01:38:00,5535E-2,5C000490,-0724,1328,7286,019.5,045.0,0.138,768.6,01.15,0.508
2014-02-27 01:39:00,5627E-2,5C000490,-0724,1330,7263,019.5,045.0,0.138,768.5,01.15,0.508
2014-02-27 01:40:00,5574E-2,5C000490,-0724,1332,7199,019.5,045.0,0.138,768.5,01.15,0.508
2014-02-27 01:41:00,5515E-2,5C000490,-0724,1333,7231,019.5,045.0,0.138,768.6,01.15,0.508
2014-02-27 01:42:00,5593E-2,5C000490,-0724,1335,7240,019.5,045.1,0.138,768.6,01.15,0.508
2014-02-27 01:43:00,5567E-2,5C000490,-0724,1338,7301,019.5,045.0,0.138,768.5,01.15,0.508
2014-02-27 01:44:00,5589E-2,5C000490,-0724,1340,7200,019.5,045.0,0.138,768.6,01.15,0.508
2014-02-27 01:45:00,5591E-2,5C000490,-0724,1341,7148,019.5,045.1,0.138,768.6,01.15,0.508
2014-02-27 01:46:00,5612E-2,5C000490,-0724,1341,7193,019.5,045.1,0.138,768.5,01.15,0.508
2014-02-27 01:47:00,5557E-2,5C000490,-0724,1340,7124,019.5,045.0,0.138,768.5,01.15,0.508
2014-02-27 01:48:00,5577E-2,5C000490,-0724,1341,7123,019.5,045.0,0.138,768.6,01.15,0.508
2014-02-27 01:49:00,5560E-2,5C000490,-0724,1343,7159,019.6,045.1,0.138,768.6,01.15,0.508
2014-02-27 01:50:00,5563E-2,5C000490,-0724,1345,7091,019.5,045.0,0.138,768.5,01.15,0.508
2014-02-27 01:51:00,5597E-2,5C000490,-0724,1346,7095,019.6,045.0,0.138,768.5,01.15,0.508
2014-02-27 01:52:00,5577E-2,5C000490,-0724,1345,7058,019.6,045.1,0.138,768.5,01.15,0.508
2014-02-27 01:53:00,5532E-2,5C000490,-0724,1347,7086,019.6,045.1,0.138,768.6,01.15,0.508
2014-02-27 01:54:00,5533E-2,5C000490,-0724,1346,7154,019.6,045.1,0.138,768.6,01.15,0.508
2014-02-27 01:55:00,5596E-2,5C000490,-0724,1347,7099,019.6,045.0,0.137,768.6,01.15,0.508
2014-02-27 01:56:00,5511E-2,5C000490,-0724,1349,7048,019.6,045.1,0.138,768.6,01.15,0.508
2014-02-27 01:57:00,5516E-2,5C000490,-0724,1350,7075,019.6,045.0,0.138,768.6,01.15,0.508
2014-02-27 01:58:00,5513E-2,5C000490,-0724,1351,7080,019.6,045.1,0.137,768.5,01.15,0.508
2014-02-27 01:59:00,5548E-2,5C000490,-0724,1353,6945,019.6,045.0,0.137,768.5,01.15,0.508
2014-02-27 02:00:00,5524E-2,5C000490,-0724,1353,7073,019.6,045.1,0.137,768.7,01.15,0.508
2014-02-27 02:01:00,5530E-2,5C000490,-0724,1355,7065,019.6,045.1,0.137,768.8,01.15,0.508
2014-02-27 02:02:00,5492E-2,5C000490,-0724,1357,6977,019.6,045.1,0.137,768.6,01.15,0.508
2014-02-27 02:03:00,5536E-2,5C000490,-0724,1357,6972,019.6,045.1,0.137,768.4,01.15,0.508
2014-02-27 02:04:00,5552E-2,5C000490,-0724,1358,6954,019.6,045.0,0.137,768.5,01.15,0.508
2014-02-27 02:05:00,5597E-2,5C000490,-0724,1357,7030,019.7,045.0,0.137,768.6,01.15,0.508
2014-02-27 02:06:00,5543E-2,5C000490,-0724,1358,7021,019.7,045.1,0.137,768.6,01.15,0.508
2014-02-27 02:07:00,5541E-2,5C000490,-0724,1359,7018,019.6,045.0,0.137,768.5,01.15,0.508
2014-02-27 02:08:00,5561E-2,5C000490,-0724,1360,6885,019.7,045.0,0.137,768.4,01.15,0.508
2014-02-27 02:09:00,5538E-2,5C000490,-0724,1362,6867,019.7,045.0,0.137,768.6,01.15,0.508
2014-02-27 02:10:00,5532E-2,5C000490,-0724,1363,6909,019.7,045.1,0.137,768.5,01.15,0.508
2014-02-27 02:11:00,5556E-2,5C000490,-0724,1364,6939,019.7,045.0,0.137,768.5,01.15,0.508
2014-02-27 02:12:00,5540E-2,5C000490,-0724,1364,6933,019.7,045.0,0.137,768.5,01.15,0.508
2014-02-27 02:13:00,5517E-2,5C000490,-0724,1365,6858,019.7,045.0,0.137,768.5,01.15,0.508
2014-02-27 02:14:00,5511E-2,5C000490,-0724,1366,6772,019.7,045.0,0.137,768.5,01.15,0.508
2014-02-27 02:15:00,5542E-2,5C000490,-0724,1366,6843,019.7,045.0,0.137,768.5,01.15,0.508
2014-02-27 02:16:00,5532E-2,5C000490,-0724,1367,6840,019.7,045.0,0.137,768.6,01.15,0.508
2014-02-27 02:17:00,5557E-2,5C000490,-0724,1368,6871,019.7,045.0,0.137,768.5,01.15,0.508
2014-02-27 02:18:00,5532E-2,5C000490,-0724,1369,6811,019.7,045.0,0.137,768.4,01.15,0.508
2014-02-27 02:19:00,5531E-2,5C000490,-0724,1369,6794,019.7,045.0,0.137,768.4,01.15,0.508
2014-02-27 02:20:00,5540E-2,5C000490,-0724,1370,6755,019.7,045.0,0.137,768.6,01.15,0.508
2014-02-27 02:21:00,5586E-2,5C000490,-0724,1370,6767,019.7,045.1,0.137,768.6,01.15,0.508
2014-02-27 02:22:00,5574E-2,5C000490,-0724,1371,6713,019.8,045.0,0.137,768.5,01.15,0.508
2014-02-27 02:23:00,5509E-2,5C000490,-0724,1371,6814,019.8,045.1,0.137,768.5,01.15,0.508
2014-02-27 02:24:00,5531E-2,5C000490,-0724,1372,6759,019.8,045.0,0.137,768.5,01.15,0.508
2014-02-27 02:25:00,5434E-2,5C000490,-0724,1372,6773,019.8,045.1,0.137,768.5,01.15,0.508
2014-02-27 02:26:00,5489E-2,5C000490,-0724,1372,6769,019.8,045.0,0.137,768.6,01.15,0.508
2014-02-27 02:27:00,5627E-2,5C000490,-0724,1371,6738,019.8,045.0,0.137,768.5,01.15,0.508
2014-02-27 02:28:00,5596E-2,5C000490,-0724,1371,6722,019.8,045.0,0.137,768.5,01.15,0.508
2014-02-27 02:29:00,5647E-2,5C000490,-0724,1371,6655,019.8,045.0,0.137,768.6,01.15,0.508
2014-02-27 02:30:00,5676E-2,5C000490,-0724,1372,6649,019.8,045.1,0.137,768.6,01.15,0.508
2014-02-27 02:31:00,5594E-2,5C000490,-0724,1372,6717,019.8,045.1,0.137,768.5,01.15,0.508
2014-02-27 02:32:00,5627E-2,5C000490,-0724,1372,6662,019.8,045.1,0.136,768.5,01.15,0.508
2014-02-27 02:33:00,5632E-2,5C000490,-0724,1373,6623,019.8,045.1,0.137,768.5,01.15,0.508
2014-02-27 02:34:00,5616E-2,5C000490,-0724,1373,6655,019.8,045.1,0.136,768.5,01.15,0.508
2014-02-27 02:35:00,5594E-2,5C000490,-0724,1373,6630,019.8,045.0,0.136,768.5,01.15,0.508
2014-02-27 02:36:00,5661E-2,5C000490,-0724,1373,6672,019.8,045.0,0.136,768.6,01.15,0.508
2014-02-27 02:37:00,5603E-2,5C000490,-0724,1373,6542,019.8,045.1,0.136,768.6,01.15,0.508
2014-02-27 02:38:00,5620E-2,5C000490,-0724,1373,6634,019.9,045.1,0.136,768.6,01.15,0.508
2014-02-27 02:39:00,5598E-2,5C000490,-0724,1373,6567,019.9,045.1,0.136,768.5,01.15,0.508
2014-02-27 02:40:00,5590E-2,5C000490,-0724,1373,6599,019.9,045.1,0.136,768.5,01.15,0.508
2014-02-27 02:41:00,5573E-2,5C000490,-0724,1373,6651,019.9,045.0,0.136,768.6,01.15,0.508
2014-02-27 02:42:00,5538E-2,5C000490,-0724,1374,6572,019.9,045.0,0.136,768.6,01.15,0.508
2014-02-27 02:43:00,5617E-2,5C000490,-0724,1374,6575,019.9,045.1,0.136,768.6,01.15,0.508
2014-02-27 02:44:00,5549E-2,5C000490,-0724,1374,6551,019.9,045.1,0.136,768.7,01.15,0.508
2014-02-27 02:45:00,5601E-2,5C000490,-0724,1373,6601,019.9,045.1,0.136,768.6,01.15,0.508
2014-02-27 02:46:00,5605E-2,5C000490,-0724,1374,6558,019.9,045.1,0.136,768.5,01.15,0.508
2014-02-27 02:47:00,5599E-2,5C000490,-0724,1374,6642,019.9,045.0,0.136,768.6,01.15,0.508
2014-02-27 02:48:00,5582E-2,5C000490,-0724,1374,6625,019.9,045.0,0.136,768.6,01.15,0.508
2014-02-27 02:49:00,5622E-2,5C000490,-0724,1374,6531,019.9,045.0,0.136,768.6,01.15,0.508
2014-02-27 02:50:00,5603E-2,5C000490,-0724,1374,6647,019.9,045.1,0.136,768.5,01.15,0.508
2014-02-27 02:51:00,5613E-2,5C000490,-0724,1374,6644,019.9,045.1,0.136,768.6,01.15,0.508
2014-02-27 02:52:00,5603E-2,5C000490,-0724,1373,6657,020.0,045.0,0.136,768.6,01.15,0.508
2014-02-27 02:53:00,5561E-2,5C000490,-0724,1374,6589,020.0,045.1,0.136,768.5,01.15,0.508
2014-02-27 02:54:00,5517E-2,5C000490,-0724,1374,6545,020.0,045.0,0.136,768.5,01.15,0.508
2014-02-27 02:55:00,5494E-2,5C000490,-0724,1374,6591,020.0,045.0,0.136,768.6,01.15,0.508
2014-02-27 02:56:00,5510E-2,5C000490,-0724,1374,6582,020.0,045.0,0.136,768.6,01.15,0.508
2014-02-27 02:57:00,5546E-2,5C000490,-0724,1374,6593,020.0,045.0,0.136,768.7,01.15,0.508
2014-02-27 02:58:00,5527E-2,5C000490,-0724,1374,6532,020.0,045.0,0.136,768.6,01.15,0.508
2014-02-27 02:59:00,5546E-2,5C000490,-0724,1374,6577,020.0,045.0,0.136,768.6,01.15,0.508
2014-02-27 03:00:00,5584E-2,5C000490,-0724,1374,6449,020.0,045.1,0.136,768.5,01.15,0.508
2014-02-27 03:01:00,5540E-2,5C000490,-0724,1374,6464,020.0,045.0,0.136,768.6,01.15,0.508
2014-02-27 03:02:00,5486E-2,5C000490,-0724,1374,6460,020.1,045.0,0.136,768.5,01.15,0.508
2014-02-27 03:03:00,5509E-2,5C000490,-0724,1374,6503,020.0,045.0,0.136,768.5,01.15,0.508
2014-02-27 03:04:00,5559E-2,5C000490,-0724,1374,6504,020.0,045.1,0.136,768.5,01.15,0.508
2014-02-27 03:05:00,5530E-2,5C000490,-0724,1374,6494,020.1,045.0,0.136,768.5,01.15,0.508
2014-02-27 03:06:00,5539E-2,5C000490,-0724,1374,6485,020.1,045.0,0.135,768.6,01.15,0.508
2014-02-27 03:07:00,5544E-2,5C000490,-0724,1374,6454,020.1,045.0,0.136,768.5,01.15,0.508
2014-02-27 03:08:00,5512E-2,5C000490,-0724,1374,6412,020.1,045.1,0.135,768.4,01.15,0.508
2014-02-27 03:09:00,5529E-2,5C000490,-0724,1374,6486,020.1,045.1,0.135,768.5,01.15,0.508
2014-02-27 03:10:00,5554E-2,5C000490,-0724,1374,6481,020.1,045.1,0.135,768.6,01.15,0.508
2014-02-27 03:11:00,5481E-2,5C000490,-0724,1374,6459,020.1,045.1,0.135,768.5,01.15,0.508
2014-02-27 03:12:00,5534E-2,5C000490,-0724,1374,6383,020.1,045.0,0.135,768.4,01.15,0.508
2014-02-27 03:13:00,5483E-2,5C000490,-0724,1375,6313,020.2,045.0,0.135,768.5,01.15,0.508
2014-02-27 03:14:00,5469E-2,5C000490,-0724,1375,6347,020.2,045.0,0.135,768.6,01.15,0.508
2014-02-27 03:15:00,5477E-2,5C000490,-0724,1375,6385,020.1,045.1,0.135,768.5,01.15,0.508
2014-02-27 03:16:00,6325E-2,5C000410,-0724,1168,9835,020.2,045.1,0.135,768.4,01.15,0.508
2014-02-27 03:17:00,6412E-2,5C000410,-0724,1121,9359,020.2,045.1,0.135,768.5,01.15,0.508
2014-02-27 03:18:00,6292E-2,5C000410,-0724,1124,9332,020.2,045.1,0.135,768.5,01.15,0.508
2014-02-27 03:19:00,6306E-2,5C000410,-0724,1129,9222,020.2,045.1,0.135,768.4,01.15,0.508
2014-02-27 03:20:00,6354E-2,5C000410,-0724,1133,9089,020.2,045.1,0.135,768.5,01.15,0.508
2014-02-27 03:21:00,6388E-2,5C000410,-0724,1137,9168,020.2,045.1,0.135,768.5,01.15,0.508
2014-02-27 03:22:00,6366E-2,5C000410,-0724,1140,9018,020.2,045.1,0.135,768.4,01.15,0.508
2014-02-27 03:23:00,6415E-2,5C000410,-0724,1144,9078,020.2,045.0,0.135,768.4,01.15,0.508
2014-02-27 03:24:00,6434E-2,5C000410,-0724,1146,8981,020.2,045.0,0.135,768.4,01.15,0.508
2014-02-27 03:25:00,6415E-2,5C000410,-0724,1149,9121,020.2,045.0,0.135,768.4,01.15,0.508
2014-02-27 03:26:00,6455E-2,5C000410,-0724,1152,9024,020.3,045.1,0.135,768.5,01.15,0.508
2014-02-27 03:27:00,6540E-2,5C000410,-0724,1154,9054,020.3,045.1,0.135,768.5,01.15,0.508
2014-02-27 03:28:00,6494E-2,5C000410,-0724,1156,9012,020.3,045.1,0.135,768.3,01.15,0.508
2014-02-27 03:29:00,6447E-2,5C000410,-0724,1158,9065,020.3,045.0,0.135,768.4,01.15,0.508
2014-02-27 03:30:00,6462E-2,5C000410,-0724,1160,8945,020.3,045.0,0.135,768.4,01.15,0.508
2014-02-27 03:31:00,6444E-2,5C000410,-0724,1164,8819,020.3,045.1,0.135,768.4,01.15,0.508
2014-02-27 03:32:00,6502E-2,5C000410,-0724,1167,8885,020.3,045.1,0.135,768.4,01.15,0.508
2014-02-27 03:33:00,6566E-2,5C000410,-0724,1168,8806,020.3,045.1,0.135,768.4,01.15,0.508
2014-02-27 03:34:00,6512E-2,5C000410,-0724,1168,8931,020.3,045.0,0.135,768.4,01.15,0.508
2014-02-27 03:35:00,6530E-2,5C000410,-0724,1170,8850,020.3,045.0,0.134,768.4,01.15,0.508
2014-02-27 03:36:00,6482E-2,5C000410,-0724,1172,8844,020.3,045.1,0.134,768.3,01.15,0.508
2014-02-27 03:37:00,6534E-2,5C000410,-0724,1173,8854,020.3,045.1,0.135,768.3,01.15,0.508
2014-02-27 03:38:00,6488E-2,5C000410,-0724,1175,8795,020.4,045.1,0.134,768.4,01.15,0.508
2014-02-27 03:39:00,6479E-2,5C000410,-0724,1177,8826,020.4,045.1,0.134,768.4,01.15,0.508
2014-02-27 03:40:00,6463E-2,5C000410,-0724,1178,8677,020.4,045.1,0.134,768.3,01.15,0.508
2014-02-27 03:41:00,6541E-2,5C000410,-0724,1180,8799,020.4,045.0,0.134,768.3,01.15,0.508
2014-02-27 03:42:00,6543E-2,5C000410,-0724,1181,8684,020.4,045.0,0.134,768.3,01.15,0.508
2014-02-27 03:43:00,6527E-2,5C000410,-0724,1183,8675,020.4,045.0,0.134,768.4,01.15,0.508
2014-02-27 03:44:00,6515E-2,5C000410,-0724,1184,8648,020.4,045.1,0.134,768.3,01.15,0.508
2014-02-27 03:45:00,6556E-2,5C000410,-0724,1185,8723,020.4,045.1,0.134,768.3,01.15,0.508
2014-02-27 03:46:00,6463E-2,5C000410,-0724,1186,8479,020.4,045.1,0.134,768.3,01.15,0.508
2014-02-27 03:47:00,6596E-2,5C000410,-0724,1188,8611,020.4,045.1,0.134,768.3,01.15,0.508
2014-02-27 03:48:00,6571E-2,5C000410,-0724,1190,8524,020.5,045.1,0.134,768.3,01.15,0.508
2014-02-27 03:49:00,6602E-2,5C000410,-0724,1190,8643,020.4,045.0,0.134,768.2,01.15,0.508
2014-02-27 03:50:00,6551E-2,5C000410,-0724,1194,8682,020.5,045.1,0.134,768.2,01.15,0.508
2014-02-27 03:51:00,6505E-2,5C000410,-0724,1196,8609,020.5,045.0,0.134,768.3,01.15,0.508
2014-02-27 03:52:00,6547E-2,5C000410,-0724,1197,8627,020.5,045.0,0.134,768.3,01.15,0.508
2014-02-27 03:53:00,6505E-2,5C000410,-0724,1199,8538,020.5,045.1,0.134,768.3,01.15,0.508
2014-02-27 03:54:00,6485E-2,5C000490,-0724,1201,8448,020.5,045.1,0.134,768.3,01.15,0.508
2014-02-27 03:55:00,6493E-2,5C000490,-0724,1201,8440,020.5,045.1,0.134,768.3,01.15,0.508
2014-02-27 03:56:00,6524E-2,5C000490,-0724,1203,8514,020.5,045.1,0.134,768.3,01.15,0.508
2014-02-27 03:57:00,6467E-2,5C000490,-0724,1204,8512,020.5,045.1,0.134,768.4,01.15,0.508
2014-02-27 03:58:00,6475E-2,5C000490,-0724,1206,8358,020.5,045.0,0.134,768.3,01.15,0.508
2014-02-27 03:59:00,6524E-2,5C000490,-0724,1209,8515,020.5,045.1,0.134,768.3,01.15,0.508
2014-02-27 04:00:00,6536E-2,5C000490,-0724,1210,8435,020.5,045.1,0.134,768.3,01.15,0.508
2014-02-27 04:01:00,6581E-2,5C000490,-0724,1213,8384,020.5,045.1,0.134,768.2,01.15,0.508
2014-02-27 04:02:00,6600E-2,5C000490,-0724,1217,8419,020.6,045.1,0.134,768.2,01.15,0.508
2014-02-27 04:03:00,6507E-2,5C000490,-0724,1215,8378,020.5,045.0,0.134,768.2,01.15,0.508
2014-02-27 04:04:00,6521E-2,5C000490,-0724,1215,8367,020.6,045.0,0.134,768.3,01.15,0.508
2014-02-27 04:05:00,6498E-2,5C000490,-0724,1214,8426,020.6,045.1,0.134,768.3,01.15,0.508
2014-02-27 04:06:00,6495E-2,5C000490,-0724,1216,8306,020.6,045.1,0.134,768.3,01.15,0.508
2014-02-27 04:07:00,6531E-2,5C000490,-0724,1219,8401,020.6,045.1,0.134,768.3,01.15,0.508
2014-02-27 04:08:00,6461E-2,5C000490,-0724,1220,8363,020.6,045.1,0.134,768.3,01.15,0.508
2014-02-27 04:09:00,6525E-2,5C000490,-0724,1222,8417,020.6,045.1,0.134,768.3,01.15,0.508
2014-02-27 04:10:00,5756E-2,5C000490,-0724,1221,8369,020.6,045.0,0.134,768.2,01.15,0.508
2014-02-27 04:11:00,5218E-2,5C000490,-0724,1221,8429,020.6,045.0,0.134,768.2,01.15,0.508
2014-02-27 04:12:00,5196E-2,5C000490,-0724,1222,8391,020.7,045.1,0.134,768.2,01.15,0.508
2014-02-27 04:13:00,5142E-2,5C000490,-0724,1224,8324,020.7,045.1,0.134,768.3,01.15,0.508
2014-02-27 04:14:00,5116E-2,5C000490,-0724,1225,8352,020.6,045.1,0.133,768.2,01.15,0.508
2014-02-27 04:15:00,5149E-2,5C000490,-0724,1225,8329,020.7,045.1,0.133,768.3,01.15,0.508
2014-02-27 04:16:00,5100E-2,5C000490,-0724,1228,8269,020.6,045.1,0.133,768.4,01.15,0.508
2014-02-27 04:17:00,5130E-2,5C000490,-0724,1228,8342,020.7,045.1,0.133,768.3,01.15,0.508
2014-02-27 04:18:00,5178E-2,5C000490,-0724,1230,8287,020.7,045.1,0.133,768.2,01.15,0.508
2014-02-27 04:19:00,5079E-2,5C000490,-0724,1232,8282,020.7,045.1,0.133,768.2,01.15,0.508
2014-02-27 04:20:00,5102E-2,5C000490,-0724,1235,8160,020.7,045.1,0.133,768.3,01.15,0.508
2014-02-27 04:21:00,5073E-2,5C000490,-0724,1236,8150,020.7,045.1,0.133,768.3,01.15,0.508
2014-02-27 04:22:00,5127E-2,5C000490,-0724,1237,8163,020.7,045.1,0.133,768.2,01.15,0.508
2014-02-27 04:23:00,5002E-2,5C000490,-0724,1240,8177,020.7,045.1,0.133,768.2,01.15,0.508